Torna al catalogo

MISRSAT-2

AttivoScienzaSSO
NORAD 58497·PAYLOAD·🇪🇬 Egypt

Lanciato Dec 4, 2023 da Jiuquan Satellite Launch Center

Loading…

Prossimi Passaggi (prossime 24 ore)

TLE

AggiornatoSource: Space-Track

Epoca: Sep 14, 2026, 15:22 UTC

1 58497U 23187B   26257.64093881  .00000846  00000-0  10960-3 0  9992
2 58497  97.9224 338.8632 0010274 208.4601 151.6053 14.83416257150307

Traccia MISRSAT-2 in tempo reale con AllMySat

Download on the App Store